Regional Weather Roundup
Issued by NWS Grand Forks, ND

Home | Current Version | Previous Version | Text Only | Print | Product List | Glossary Off
Versions: 1 2 3 4 5 6 7 8 9 10 11 12 13 14 15 16 17 18 19 20 21 22 23 24 25 26 27 28 29 30 31 32 33 34 35 36 37 38 39 40 41 42 43 44 45 46 47 48 49 50

000
ASUS43 KFGF 190831
RWRFGF
PRAIRIE TO PINES  WEATHER ROUNDUP
NATIONAL WEATHER SERVICE EASTERN NORTH DAKOTA/GRAND FORKS ND
200 AM CST TUE FEB 19 2019

 **SATELLITE DATA USED TO AUGMENT SKY COVER AT AUTOMATED STATIONS**
 *****  WEATHER ACROSS EASTERN NORTH DAKOTA  *****

CITY           SKY/WX    TMP DP  RH WIND       PRES   REMARKS
GRAND FORKS    FAIR     -11 -15  82 S8        30.50F WCI -28
GRAND FRKS AFB FAIR     -10 -16  77 S3        30.49F
GRAND FRKS NWS   N/A     -8 -10  89 S5        30.47F WCI -19
DEVILS LAKE    FAIR     -12 -16  82 CALM      30.41F
FARGO          FAIR      -8 -11  86 S6        30.52F WCI -21
WAHPETON ARPT  FAIR     -13 -17  84 CALM      30.54S
$$

 ***** WEATHER ACROSS CENTRAL AND WESTERN NORTH DAKOTA  *****

CITY           SKY/WX    TMP DP  RH WIND       PRES   REMARKS
BISMARCK       FAIR     -13 -19  75 CALM      30.41F
MINOT          FAIR      -7 -12  79 S9        30.33F WCI -24
JAMESTOWN      FAIR      -9 -13  83 SW6       30.42F WCI -22
MINOT AFB      FAIR     -11 -16  78 SW10      30.32F WCI -30
GARRISON         N/A    -16 -21  78 S6        30.33F WCI -31
WILLISTON      FAIR     -12 -18  74 S5        30.31F WCI -24
DICKINSON      FAIR     -12 -18  74 SW7       30.25F WCI -27
HETTINGER      FAIR     -18 -21  87 W5        30.29F WCI -31
$$

 *****  OTHER AIRPORT OBSERVATIONS IN OUR AREA  *****

CITY           SKY/WX    TMP DP  RH WIND       PRES   REMARKS
WALHALLA         N/A     -4  -9  77 CALM      30.44F
GRAFTON AIRPOR FAIR     -13 -17  84 S8        30.51S WCI -30
VALLEY CITY AR   N/A    N/A N/A N/A MISG        N/A
CANDO          FAIR     -11 -17  77 S9        30.39F WCI -29
CAVALIER APRT  FAIR     -13 -18  77 S5        30.46F WCI -25
GWINNER          N/A    -15 -18  84 SW5       30.49S WCI -27
SHEYENNE NWR     N/A    -18 -25  70 CALM      29.95S
ROLLA          PTSUNNY  -11 -15  84 S7        30.32F WCI -26
 ***** THE ABOVE OBSERVATIONS ARE NON NWS ARE NOT QUALITY
       CONTROLLED AND MAY MIS-REPORT RAIN FOR SNOW...
$$

  *****  WEATHER ACROSS NORTHERN MINNESOTA  *****

CITY           SKY/WX    TMP DP  RH WIND       PRES   REMARKS
FLAG ISLAND    FAIR     -15 -18  84 S3        30.45S
WARROAD        FAIR      -9 -13  84 CALM      30.47S
ROSEAU         FAIR      -9 -15  77 SW6       30.47S WCI -23
HALLOCK        FAIR     -13 -18  77 SE9       30.48S WCI -31
THF RVR FALLS  FAIR     -10 -13  86 S6        30.49F WCI -23
BAUDETTE       FAIR      -6 -11  79 SW3       30.45S
WASKISH        FAIR     -11 -15  84 CALM      30.47S
CROOKSTON      FAIR      -8 -11  84 S7        30.52S WCI -22
STEPHEN NDAWN    N/A    -11 -17  77 S5          N/A  WCI -23
GREENBUSH NDAW   N/A    -15 -18  84 S3          N/A
$$
  *****  WEATHER ACROSS CENTRAL AND WEST MINNESOTA  *****

CITY           SKY/WX    TMP DP  RH WIND       PRES   REMARKS
FOSSTON        FAIR     -17 -20  83 S3        30.48R
BEMIDJI        FAIR     -13 -17  82 CALM      30.45F
PARK RAPIDS    FAIR     -10 -14  82 CALM      30.46R
ELBOW LAKE     FAIR      -9 -13  83 CALM      30.51F
WADENA         FAIR      -8 -11  84 CALM      30.48S
DETROIT LAKES  FAIR      -9 -15  77 S3        30.49S
MOORHEAD       FAIR     -11 -17  77 CALM      30.53S
FERGUS FALLS   FAIR      -8 -11  84 CALM      30.53S
MORRIS MN      FAIR      -6  -9  84 CALM      30.51S
STAPLES        FAIR      -9 -15  77 CALM      30.49R
$$
  *****  WEATHER ELSEWHERE ACROSS MINNESOTA  *****

CITY           SKY/WX    TMP DP  RH WIND       PRES   REMARKS
DULUTH         MOCLDY     6  -7  54 NW6       30.43S WCI  -4
INTRNTL FALLS  CLOUDY   -10 -15  78 SW3       30.47R
ELY            FAIR     -17 -24  70 CALM      30.43S
CLOQUET        CLOUDY    -4 -11  71 NW5       30.45S WCI -15
WHEATON        FAIR      -6  -9  84 CALM      30.56S
BRAINERD       FAIR      -7 -13  75 CALM      30.48S
HIBBING        FAIR     -11 -15  82 CALM      30.44S
ALEXANDRIA     FAIR      -4 -11  72 W5        30.49R WCI -15
SAINT CLOUD    FAIR      -3  -7  82 CALM      30.51R
MINNEAPOLIS    FAIR       3   0  87 SW7       30.56R WCI  -9
$$

  *****  WEATHER ACROSS SOUTH DAKOTA  *****

CITY           SKY/WX    TMP DP  RH WIND       PRES   REMARKS
SIOUX FALLS    MOCLDY    -8 -12  83 N3        30.49F
BROOKINGS        N/A    -13 -17  84 MISG        N/A
WATERTOWN      FAIR      -6  -9  86 S5        30.45R WCI -17
HURON          FAIR     -11 -15  82 CALM      30.51S
SISSETON         N/A     -9 -13  83 S3        30.51S
ABERDEEN       ICE FOG  -15 -18  86 S3        30.50F VSB 1/4
MITCHELL       FAIR      -9 -14  78 CALM      30.52F
PIERRE         FOG      -10 -14  82 CALM      30.43F VSB 1/4
MOBRIDGE       MOCLDY   -11 -16  78 SE6       30.39F WCI -25
RAPID CITY     FAIR      -5 -10  79 SE3       30.22F
$$

  *****  SOME WEATHER IN NEARBY STATES *****

CITY           SKY/WX    TMP DP  RH WIND       PRES   REMARKS
GLASGOW MT     FAIR     -11 -18  71 SE13      30.21F WCI -32
GREAT FALLS MT FAIR      -5 -10  79 S13       29.98F WCI -24
CHEYENNE WY    CLOUDY     6   4  91 SE10      29.90F WCI  -9
SCOTTSBLUFF NE CLOUDY    10   7  87 SE15      30.12F WCI  -7
OMAHA NE       MOCLDY     2  -2  83 N3        30.56S
DES MOINES IA  CLOUDY     0  -3  87 NW5       30.57S WCI -10
DAVENPORT IA   FAIR       0  -4  83 SW3       30.58S FOG
CHICAGO IL     FAIR      15   9  76 CALM      30.56S
EAU CLAIRE WI  FAIR      -2  -6  83 W5        30.52S WCI -12
LA CROSSE WI   FAIR      -2  -7  79 SE3       30.58R HAZE
$$

  *****  SOME NATIONAL WEATHER *****

CITY           SKY/WX    TMP DP  RH WIND       PRES   REMARKS
LA GUARDIA NY  FAIR      26  12  55 NW16G22   30.44R WCI  14
RALEIGH NC     MOCLDY    38  25  59 N7        30.46R
ATLANTA GA     MOCLDY    45  32  60 N9        30.32F
NEW ORLEANS LA CLOUDY    58  42  55 E20G26    30.13F
OKLAHOMA CITY  CLOUDY    29  19  66 NE14      30.31F WCI  18
ALBUQUERQUE NM MOCLDY    24  12  60 E26G37    29.86F WCI   8
SALT LAKE CITY CLOUDY    27  18  69 N7        30.00F WCI  19
LOS ANGELES CA FAIR      50  25  37 N10       30.12R
BOISE ID       FAIR      23  17  78 NW10      30.15S WCI  12
SEATTLE WA     CLOUDY    39  35  86 SE6       30.29F
$$

*** WEATHER ACROSS MANITOBA...SASKATCHEWAN AND ONTARIO ***
                ***ONTARIO***

CITY           SKY/WX    TMP DP  RH WIND       PRES   REMARKS
GERALDTON      CLEAR    -17 -24  70 SW2       30.41R
THUNDER BAY    CLEAR     -9 -15  77 W5        30.51R WCI -21
SIOUX LOOKOUT  CLEAR    -20 -26  76 S3        30.40R
TORONTO        PTCLDY     5  -4  66 SW5       30.53R WCI  -4
BIG TROUT LK   CLEAR    -17 -20  83 W6        30.32S WCI -31
PICKLE LAKE    NOT AVBL
DRYDEN         CLEAR     -9 -13  84 SW7       30.39S WCI -24
KENORA         MOCLDY    -8 -13  77 SW3       30.40F
$$
                *** MANITOBA***

CITY           SKY/WX    TMP DP  RH WIND       PRES   REMARKS
BRANDON        CLEAR    -22 -29  69 S5        30.35F WCI -36
DAUPHIN        CLEAR     -4  -9  77 W9        30.31F WCI -20
ISLAND LAKE    PTCLDY   -13 -18  77 SW7       30.29F WCI -29
PILOT MOUND      N/A    -13 -18  77 S9          N/A  WCI -31
THE PAS        MOCLDY   -11 -17  77 S7        30.16F WCI -26
THOMPSON       CLOUDY    -6 -13  71 S8        30.10F WCI -21
WINNIPEG       CLEAR     -8 -15  71 S13       30.45F WCI -28
LYNN LAKE      CLOUDY    -4  -9  77 S9G17     29.89F WCI -20
CHURCHILL      FLURRIES -17 -22  76 S8        30.07F WCI -34
GILLAM         FLURRIES  -6 -13  71 SW9       30.16F WCI -22
$$
                ***SASKATCHEWAN***

CITY           SKY/WX    TMP DP  RH WIND       PRES   REMARKS
ESTEVAN        FLURRIES -15 -20  76 SW9       30.26F WCI -33
KINDERSLEY     CLEAR    -15 -20  76 S20       29.98F WCI -41
LLOYDMINSTER   CLEAR     -9 -17  70 SW15      29.87F WCI -31
PRINCE ALBERT  CRYSTALS -13 -18  77 SW10      30.12F WCI -32
REGINA         CLEAR    -20 -26  76 SE8       30.19F WCI -39
YORKTON        PTCLDY   -11 -17  77 S9        30.22S WCI -29
N. BATTLEFORD  PTCLDY   -15 -20  76 S6        30.05F WCI -29
LA RONGE       MOCLDY    -6 -11  77 S9        29.95F WCI -22
SASKATOON      CLEAR    -17 -22  76 S12       30.12F WCI -38
SWIFT CURRENT  CLEAR     -8 -13  77 SW26G32   29.99F BLWGSNOWWCI -35
$$
NOTE: THESE ARE AUTOMATED STATIONS WITH LIMITED QUALITY CONTROL
      "FAIR" INDICATES FEW OR NO CLOUDS BELOW 12,000 FEET WITH NO
      SIGNIFICANT WEATHER AND/OR OBSTRUCTIONS TO VISIBILITY.
      SKY/WX - SKY CONDITION AND SIGNIFICANT WEATHER.
      TMP - AIR TEMPERATURE.    DP   - DEWPOINT TEMPERATURE.
      RH  - RELATIVE HUMIDITY.  PRES - PRESSURE.
      HX  - HEAT INDEX.         WCI  - WIND CHILL INDEX.
$



USA.gov is the U.S. government's official web portal to all federal, state and local government web resources and services.